DW2762 Weather Reports


Display with metric or nautical units.
time (UTC)temp
F
wind
direction
speed
MPH
gust
MPH
rain 1hr
in
rain 24hr
in
rain mn
in
humidity
%
barometer
mb
20191117063311 49 126 6.0 12.0 0.00 0.00 0.00 94 1013.0
20191117060311 49 64 5.0 9.0 0.00 0.00 0.00 94 1012.9
20191117053311 49 123 5.0 9.0 0.00 0.00 0.00 95 1013.1
20191117050311 50 62 3.0 4.0 0.00 0.00 0.00 94 1013.5
20191117043311 50 58 1.0 4.0 0.00 0.00 0.00 94 1013.7
20191117040311 50 118 5.0 10.0 0.00 0.00 0.00 95 1013.9
20191117033311 50 104 7.0 9.0 0.00 0.00 0.00 95 1014.1
20191117030311 49 130 4.0 10.0 0.00 0.00 0.00 96 1014.3
20191117023311 49 79 2.0 8.0 0.00 0.00 0.00 96 1014.3
20191117020311 49 94 4.0 8.0 0.00 0.00 0.00 96 1014.6
20191117013311 49 111 3.0 7.0 0.00 0.00 0.00 94 1015.0
20191117010311 49 94 3.0 8.0 0.00 0.00 0.00 94 1015.0
20191117003311 49 116 3.0 10.0 0.00 0.00 0.00 94 1015.0
20191117000310 49 75 6.0 9.0 0.00 0.00 0.00 93 1015.0
20191116233311 48 87 2.0 3.0 0.00 0.00 0.00 93 1015.3
20191116230311 48 128 4.0 8.0 0.00 0.00 0.00 93 1015.6
20191116223311 48 57 1.0 4.0 0.00 0.00 0.00 94 1015.6
20191116220311 48 173 2.0 3.0 0.00 0.00 0.00 93 1015.7
20191116213310 48 121 3.0 8.0 0.00 0.00 0.00 93 1015.4
20191116210311 48 142 3.0 10.0 0.00 0.00 0.00 92 1015.6
20191116203310 48 72 2.0 6.0 0.00 0.00 0.00 91 1015.1
20191116200310 47 134 6.0 9.0 0.00 0.00 0.00 92 1015.2
20191116193310 48 63 4.0 8.0 0.00 0.00 0.00 91 1015.1
20191116190311 47 124 3.0 6.0 0.00 0.00 0.00 92 1014.7
20191116183310 48 104 4.0 7.0 0.00 0.00 0.00 91 1014.8
20191116180310 48 82 3.0 7.0 0.00 0.00 0.00 90 1014.6
20191116173310 49 110 3.0 6.0 0.00 0.00 0.00 90 1014.2
20191116170310 49 118 3.0 6.0 0.00 0.00 0.00 91 1013.8
20191116163311 49 167 1.0 5.0 0.00 0.00 0.00 91 1013.3
20191116160310 49 116 2.0 5.0 0.00 0.00 0.00 90 1013.2
20191116153310 50 137 2.0 3.0 0.00 0.00 0.00 90 1012.8
20191116150310 50 158 3.0 7.0 0.00 0.00 0.00 90 1012.3
20191116143310 51 130 4.0 14.0 0.00 0.00 0.00 89 1011.9
20191116140310 51 182 2.0 10.0 0.00 0.00 0.00 88 1011.4
20191116133310 51 163 5.0 13.0 0.00 0.00 0.00 87 1011.6
20191116130310 51 133 6.0 9.0 0.00 0.00 0.00 89 1011.3
20191116123310 51 101 3.0 13.0 0.00 0.00 0.00 89 1011.3
20191116120310 51 167 4.0 11.0 0.00 0.00 0.00 88 1011.1
20191116113310 50 130 5.0 12.0 0.00 0.00 0.00 88 1010.7
20191116110310 50 132 4.0 13.0 0.00 0.00 0.00 89 1010.7
20191116103310 50 105 6.0 12.0 0.00 0.00 0.00 89 1010.5
20191116100315 50 157 1.0 6.0 0.00 0.00 0.00 90 1010.4
20191116093315 50 149 4.0 11.0 0.00 0.00 0.00 90 1010.4
20191116090315 50 147 4.0 15.0 0.00 0.00 0.00 89 1010.1
20191116083315 50 117 8.0 12.0 0.00 0.00 0.00 89 1009.8
20191116080315 50 121 6.0 15.0 0.00 0.00 0.00 89 1009.4
20191116073315 50 142 5.0 8.0 0.00 0.00 0.00 89 1009.5
20191116070315 50 133 5.0 14.0 0.00 0.00 0.00 88 1009.4